Location: Cootamundra
(34.6417°S, 148.0250°E)
Time: 11:06:16
(UTC+10:00)

X-37B - Visible Passes

Search period start: 26 September 2022 00:00
Search period end: 06 October 2022 01:00
Orbit: 330 x 340 km, 45.0° (Epoch: 02 September)

Date Brightness Start Highest point End Pass type
(mag) Time Alt. Az. Time Alt. Az. Time Alt. Az.
26 Sep 3.1 18:48:48 10° SSW 18:49:43 11° S 18:50:38 10° SSE visible
27 Sep 2.8 19:08:55 10° SSW 19:10:35 14° SSE 19:11:44 12° SE visible
28 Sep 2.0 19:28:56 10° SW 19:31:21 23° SSE 19:31:21 23° SSE visible
29 Sep 1.8 19:49:06 10° SW 19:51:00 34° SSW 19:51:00 34° SSW visible
30 Sep 2.0 18:34:23 10° SW 18:36:46 23° SSE 18:39:09 10° ESE visible
30 Sep 3.1 20:09:36 10° WSW 20:10:43 20° W 20:10:43 20° W visible
01 Oct 0.6 18:54:32 10° SW 18:57:22 54° SSE 18:59:16 18° ENE visible
02 Oct 1.2 20:15:02 10° WSW 20:17:47 43° NW 20:19:09 23° NNE visible
03 Oct 3.0 20:36:30 10° WNW 20:38:01 13° NW 20:39:09 11° NNW visible
05 Oct 3.2 19:41:55 10° WNW 19:43:27 14° NW 19:44:59 10° N visible
